Regional Weather Roundup
Issued by NWS

Home | Current Version | Previous Version | Text Only | Print | Product List | Glossary On
Versions: 1 2 3 4 5 6 7 8 9 10 11 12 13 14 15 16 17 18 19 20 21 22 23 24 25 26 27 28 29 30 31 32 33 34 35 36 37 38 39 40 41 42 43 44 45 46 47
561
ASPQ40 PGUM 061812
RWRPQ
WEATHER ROUNDUP FOR THE MARIANAS AND MICRONESIA
NATIONAL WEATHER SERVICE TIYAN GU
400 AM CHST WED DEC 07 2016

GUZ001>004-061900-
MARIANA ISLANDS-

CITY           SKY/WX    TMP DP  RH WIND       PRES   REMARKS
GUAM AIRPORT   PTCLDY    81  77  89 E7        29.84S
ANDERSEN AFB   PTCLDY    79  75  89 E14       29.85S
ROTA AIRPORT   NOT AVBL
TINIAN AP      NOT AVBL
SAIPAN AP      MOCLDY    81  75  83 E18       29.85R

$$

PMZ161-061900-
REPUBLIC OF PALAU-

CITY           SKY/WX    TMP DP  RH WIND       PRES   REMARKS
KOROR AP       CLOUDY    75  75 100 NE6       29.72F
KOROR WSO      CLOUDY    77  75  94 SE5       29.73F

$$

PMZ171>174-061900-
FEDERATED STATES OF MICRONESIA-

CITY           SKY/WX    TMP DP  RH WIND       PRES   REMARKS
YAP AIRPORT    MOCLDY    79  77  94 VRB7      29.73F
CHUUK AP       CLOUDY    81  75  83 NE12      29.74R
POHNPEI AP     NOT AVBL
POHNPEI WSO    CLOUDY    77  75  94 E6        29.77R
KOSRAE AP      NOT AVBL

$$

PMZ181-061900-
REPUBLIC OF THE MARSHALL ISLANDS-

CITY           SKY/WX    TMP DP  RH WIND       PRES   REMARKS
KWAJALEIN AP   NOT AVBL
MAJURO AP      NOT AVBL
MAJURO WSO     CLOUDY    82  72  69 NE8       29.74R

$$





USA.gov is the U.S. government's official web portal to all federal, state and local government web resources and services.